User: anonymous   Login
Location: Unspecified
(0.0000°N, 0.0000°E)
Time: 19:38:20
(UTC+00:00)
Language:

PRISM - Orbit

View from above orbital plane
View from above orbital plane
View from above satellite
View from above satellite

Ground track
Ground track

The orbit data is extracted from the following two-line orbital elements,

1 33493U 09002B   19341.54224427  .00000683  00000-0  65127-4 0  9993
2 33493  98.1284 269.0546 0014561 338.9324  21.1295 14.96828095590856
Epoch (UTC): 07 December 2019 13:00:49
Eccentricity: 0.0014561
inclination: 98.1284°
perigee height: 566 km
apogee height: 587 km
right ascension of ascending node: 269.0546°
argument of perigee: 338.9324°
revolutions per day: 14.96828095
mean anomaly at epoch: 21.1295°
orbit number at epoch: 59085

The dashed part of the orbit path shows where the satellite is in the earth's shadow,  

DLR